Regional Weather Roundup
Issued by NWS

Home | Current Version | Previous Version | Text Only | Print | Product List | Glossary On
Versions: 1 2 3 4 5 6 7 8 9 10 11 12 13 14 15 16 17 18 19 20 21 22 23 24 25 26 27
000
ASUS44 KBMX 251310
RWRAL

ALABAMA REGIONAL WEATHER ROUNDUP
NATIONAL WEATHER SERVICE BIRMINGHAM AL
700 AM CST SAT FEB 25 2017

NOTE: "FAIR" INDICATES FEW OR NO CLOUDS BELOW 12,000 FEET
WITH NO SIGNIFICANT WEATHER AND/OR OBSTRUCTIONS TO VISIBILITY.

THE REMARK "TC" DENOTES TEMPERATURE IN DEGREES CELSIUS.

ALZ001>011-014-016>018-020-251400-
NORTH ALABAMA

CITY           SKY/WX    TMP DP  RH WIND       PRES   REMARKS
MUSCLE SHOALS  CLEAR     43  28  55 NW12G20   29.98R
HUNTSVILLE     PTCLDY    46  33  60 NW9       29.93R
DECATUR        CLEAR     45  32  60 NW14G21   29.94R
HALEYVILLE     FAIR      42  30  62 NW9       29.98R
GADSDEN        PTCLDY    51  34  52 W10       29.92R
$$

ALZ012-013-022-023-030>036-040>044-251400-
WEST CENTRAL ALABAMA

CITY           SKY/WX    TMP DP  RH WIND       PRES   REMARKS
TUSCALOOSA     CLEAR     51  32  48 NW9       29.98R
$$

ALZ015-024>027-033>036-040>044-251400-
CENTRAL ALABAMA

CITY           SKY/WX    TMP DP  RH WIND       PRES   REMARKS
BIRMINGHAM     CLEAR     52  33  48 NW8       29.95R
MONTGOMERY     MOCLDY    62  39  42 NW16      29.92R
SHELBY CO ARPT CLEAR     53  31  42 NW12G20   29.93R
MAXWELL AFB    MOCLDY    61  45  56 NW14      29.91R
GREENVILLE     FAIR      61  51  70 NW9       29.91R
$$

ALZ019-021-028-029-037-038-045>048-251400-
EAST CENTRAL ALABAMA

CITY           SKY/WX    TMP DP  RH WIND       PRES   REMARKS
ANNISTON       PTCLDY    55  33  43 W9        29.90R
ALEXANDER CITY PTCLDY    54  42  62 NW7       29.90R
AUBURN         CLOUDY    55  47  74 NW16G22   29.89R
$$

ALZ051>064-251400-
SOUTHWEST ALABAMA

CITY           SKY/WX    TMP DP  RH WIND       PRES   REMARKS
MOBILE         PTCLDY    58  37  45 NW9       29.97R
BROOKLEY FIELD MOCLDY    62  41  46 NW14      29.96R
EVERGREEN      MOCLDY    61  52  72 NW3       29.94R
$$

ALZ049-050-065>069-251400-
SOUTHEAST ALABAMA

CITY           SKY/WX    TMP DP  RH WIND       PRES   REMARKS
DOTHAN         CLOUDY    65  64  97 W7        29.90R
OZARK          PTCLDY    64  64 100 W7        29.87R
TROY           CLOUDY    64  59  83 NW13      29.90R
EUFAULA        MOCLDY    66  62  87 W5        29.85R
$$




USA.gov is the U.S. government's official web portal to all federal, state and local government web resources and services.